This demonstration page uses our WeatherBlox Daily Observations layout. Learn more.

Left ArrowRight Arrow

36.17497, -115.13722

Hourly Observations for May 14, 2017

Temp ( °F °C ) Dew Point ( °F °C ) Humidity (%) Winds ( mph kmh ) Pressure ( in mb ) Visibility ( mi km ) Precip ( " mm )
12:53 am 00:53 Clear 67 19.4 16 -8.9 14 14 NNW 5 7 29.71 1006 10 16 0.00 0.00
1:53 am 01:53 Clear 64 17.8 16 -8.9 15 15 NNE 6 9 29.70 1006 10 16 0.00 0.00
2:53 am 02:53 Clear 62 16.7 11 -11.7 13 13 NW 3 6 29.70 1006 10 16 0.00 0.00
3:53 am 03:53 Clear 60 15.6 15 -9.4 17 17 WNW 5 7 29.71 1006 10 16 0.00 0.00
4:53 am 04:53 Clear 59 15 20 -6.7 22 22 Calm 29.72 1007 10 16 0.00 0.00
5:53 am 05:53 Sunny 57 13.9 21 -6.1 25 25 N 3 6 29.74 1007 10 16 0.00 0.00
6:53 am 06:53 Sunny 61 16.1 21 -6.1 21 21 Calm 29.75 1008 10 16 0.00 0.00
7:53 am 07:53 Sunny 67 19.4 19 -7.2 16 16 ESE 6 9 29.75 1007 10 16 0.00 0.00
8:53 am 08:53 Sunny 72 22.2 17 -8.3 12 12 S 13 20 29.74 1007 10 16 0.00 0.00
9:53 am 09:53 Sunny 76 24.4 18 -7.8 11 11 SSW 14 22 29.73 1007 10 16 0.00 0.00
10:53 am 10:53 Sunny 78 25.6 15 -9.4 9 9 S 14 22 29.72 1007 10 16 0.00 0.00
11:53 am 11:53 Sunny 79 26.1 9 -12.8 7 7 WSW 17 28 29.72 1006 10 16 0.00 0.00
12:53 pm 12:53 Sunny 81 27.2 11 -11.7 7 7 SW 15 24 29.70 1006 10 16 0.00 0.00
1:53 pm 13:53 Sunny 84 28.9 6 -14.4 5 5 SW 18 30 29.69 1006 10 16 0.00 0.00
2:53 pm 14:53 Sunny 83 28.3 -6 -21.1 3 3 SW 18 30 29.67 1005 10 16 0.00 0.00
3:53 pm 15:53 Sunny 84 28.9 -3 -19.4 3 3 SW 22 35 29.65 1004 10 16 0.00 0.00
4:53 pm 16:53 Sunny 83 28.3 -5 -20.6 3 3 WSW 13 20 29.65 1004 10 16 0.00 0.00
5:53 pm 17:53 Sunny 81 27.2 -2 -18.9 4 4 WSW 22 35 29.65 1004 10 16 0.00 0.00
6:53 pm 18:53 Sunny 79 26.1 5 -15 6 6 W 17 28 29.65 1004 10 16 0.00 0.00
7:53 pm 19:53 Clear 77 25 8 -13.3 7 7 W 9 15 29.65 1004 10 16 0.00 0.00
8:53 pm 20:53 Clear 76 24.4 11 -11.7 8 8 Calm 29.65 1004 10 16 0.00 0.00
9:53 pm 21:53 Clear 71 21.7 12 -11.1 10 10 ESE 5 7 29.66 1004 10 16 0.00 0.00
10:53 pm 22:53 Clear 72 22.2 21 -6.1 15 15 WSW 12 19 29.66 1005 10 16 0.00 0.00
11:53 pm 23:53 Clear 70 21.1 24 -4.4 18 18 SSW 6 9 29.68 1005 10 16 0.00 0.00

Powered by AerisWeather